Time,TemperatureF,DewpointF,PressureIn,WindDirection,WindDirectionDegrees,WindSpeedMPH,WindSpeedGustMPH,Humidity,HourlyPrecipIn,Conditions,Clouds,dailyrainin,SoftwareType,DateUTC
2013-02-06 00:02:00,55.0,51.0,29.97,East,94,0.0,0.0,86,0.00,,,0.00,,2013-02-06 05:02:00,
2013-02-06 00:12:00,55.0,51.0,29.97,East,94,0.0,0.0,86,0.00,,,0.00,,2013-02-06 05:12:00,
2013-02-06 00:22:00,55.0,51.0,29.97,East,94,0.0,0.0,86,0.00,,,0.00,,2013-02-06 05:22:00,
2013-02-06 00:32:00,54.0,50.0,29.97,East,94,0.0,0.0,86,0.00,,,0.00,,2013-02-06 05:32:00,
2013-02-06 00:42:00,54.0,50.0,29.97,East,94,0.0,0.0,86,0.00,,,0.00,,2013-02-06 05:42:00,
2013-02-06 00:53:00,54.0,50.0,29.97,East,94,0.0,0.0,86,0.00,,,0.00,,2013-02-06 05:53:00,
2013-02-06 01:01:00,54.0,50.0,29.97,East,94,0.0,0.0,86,0.00,,,0.00,,2013-02-06 06:01:00,
2013-02-06 01:11:00,54.0,50.0,29.97,East,94,0.0,0.0,86,0.00,,,0.00,,2013-02-06 06:11:00,
2013-02-06 01:22:00,54.0,50.0,29.96,East,94,0.0,0.0,87,0.00,,,0.00,,2013-02-06 06:22:00,
2013-02-06 01:32:00,54.0,50.0,29.96,East,94,0.0,0.0,87,0.00,,,0.00,,2013-02-06 06:32:00,
2013-02-06 01:42:00,54.0,50.0,29.96,East,94,0.0,0.0,87,0.00,,,0.00,,2013-02-06 06:42:00,
2013-02-06 01:51:00,54.0,50.0,29.96,East,94,0.0,0.0,87,0.00,,,0.00,,2013-02-06 06:51:00,
2013-02-06 02:02:00,53.0,49.0,29.96,East,94,0.0,0.0,87,0.00,,,0.00,,2013-02-06 07:02:00,
2013-02-06 02:11:00,53.0,49.0,29.96,East,94,0.0,0.0,87,0.00,,,0.00,,2013-02-06 07:11:00,
2013-02-06 02:22:00,53.0,50.0,29.96,East,94,0.0,0.0,88,0.00,,,0.00,,2013-02-06 07:22:00,
2013-02-06 02:32:00,53.0,50.0,29.96,East,94,0.0,0.0,88,0.00,,,0.00,,2013-02-06 07:32:00,
2013-02-06 02:42:00,53.0,50.0,29.96,East,94,0.0,0.0,88,0.00,,,0.00,,2013-02-06 07:42:00,
2013-02-06 02:52:00,53.0,50.0,29.95,East,94,0.0,0.0,88,0.00,,,0.00,,2013-02-06 07:52:00,
2013-02-06 03:01:00,53.0,50.0,29.95,East,94,0.0,0.0,89,0.00,,,0.00,,2013-02-06 08:01:00,
2013-02-06 03:11:00,53.0,50.0,29.95,East,94,0.0,0.0,89,0.00,,,0.00,,2013-02-06 08:11:00,
2013-02-06 03:21:00,53.0,50.0,29.95,East,94,0.0,0.0,89,0.00,,,0.00,,2013-02-06 08:21:00,
2013-02-06 03:32:00,53.0,50.0,29.95,East,94,0.0,0.0,89,0.00,,,0.00,,2013-02-06 08:32:00,
2013-02-06 03:42:00,53.0,50.0,29.95,East,94,0.0,0.0,89,0.00,,,0.00,,2013-02-06 08:42:00,
2013-02-06 03:53:00,53.0,50.0,29.96,East,94,0.0,0.0,89,0.00,,,0.00,,2013-02-06 08:53:00,
2013-02-06 04:02:00,53.0,50.0,29.96,East,94,0.0,0.0,89,0.00,,,0.00,,2013-02-06 09:02:00,
2013-02-06 04:11:00,53.0,50.0,29.96,East,94,0.0,0.0,89,0.00,,,0.00,,2013-02-06 09:11:00,
2013-02-06 04:22:00,53.0,50.0,29.96,East,94,0.0,0.0,89,0.00,,,0.00,,2013-02-06 09:22:00,
2013-02-06 04:32:00,53.0,50.0,29.96,East,94,0.0,0.0,90,0.00,,,0.00,,2013-02-06 09:32:00,
2013-02-06 04:42:00,53.0,50.0,29.96,East,94,0.0,0.0,90,0.00,,,0.00,,2013-02-06 09:42:00,
2013-02-06 04:52:00,53.0,50.0,29.95,East,97,1.0,2.0,90,0.00,,,0.00,,2013-02-06 09:52:00,
2013-02-06 05:01:00,53.0,50.0,29.96,East,97,0.0,0.0,90,0.00,,,0.00,,2013-02-06 10:01:00,
2013-02-06 05:11:00,53.0,50.0,29.96,East,97,0.0,0.0,90,0.00,,,0.00,,2013-02-06 10:11:00,
2013-02-06 05:22:00,54.0,51.0,29.96,East,97,0.0,0.0,90,0.00,,,0.00,,2013-02-06 10:22:00,
2013-02-06 05:32:00,53.0,50.0,29.96,East,97,0.0,0.0,90,0.00,,,0.00,,2013-02-06 10:32:00,
2013-02-06 05:42:00,53.0,50.0,29.96,East,97,0.0,0.0,90,0.00,,,0.00,,2013-02-06 10:42:00,
2013-02-06 05:52:00,53.0,50.0,29.96,East,97,0.0,0.0,91,0.00,,,0.00,,2013-02-06 10:52:00,
2013-02-06 06:01:00,53.0,50.0,29.97,East,97,0.0,0.0,91,0.00,,,0.00,,2013-02-06 11:01:00,
2013-02-06 06:11:00,53.0,50.0,29.97,East,97,0.0,0.0,91,0.00,,,0.00,,2013-02-06 11:11:00,
2013-02-06 06:22:00,53.0,50.0,29.97,East,97,0.0,0.0,91,0.00,,,0.00,,2013-02-06 11:22:00,
2013-02-06 06:32:00,53.0,50.0,29.98,East,97,0.0,0.0,91,0.00,,,0.00,,2013-02-06 11:32:00,
2013-02-06 06:42:00,53.0,50.0,29.98,East,97,0.0,0.0,91,0.00,,,0.00,,2013-02-06 11:42:00,
2013-02-06 06:53:00,53.0,50.0,29.98,East,96,0.0,0.0,91,0.00,,,0.00,,2013-02-06 11:53:00,
2013-02-06 07:02:00,53.0,50.0,29.99,East,97,0.0,0.0,91,0.00,,,0.00,,2013-02-06 12:02:00,
2013-02-06 07:12:00,53.0,50.0,29.99,East,97,0.0,0.0,91,0.00,,,0.00,,2013-02-06 12:12:00,
2013-02-06 07:22:00,52.0,49.0,29.99,East,97,0.0,0.0,91,0.00,,,0.00,,2013-02-06 12:22:00,
2013-02-06 07:32:00,52.0,49.0,29.99,East,97,0.0,0.0,91,0.00,,,0.00,,2013-02-06 12:32:00,
2013-02-06 07:42:00,52.0,49.0,29.99,East,97,0.0,0.0,91,0.00,,,0.00,,2013-02-06 12:42:00,
2013-02-06 07:52:00,52.0,49.0,30.00,East,97,0.0,0.0,91,0.00,,,0.00,,2013-02-06 12:52:00,
2013-02-06 08:01:00,53.0,51.0,30.00,East,97,0.0,0.0,92,0.00,,,0.00,,2013-02-06 13:01:00,
2013-02-06 08:12:00,53.0,51.0,30.00,East,97,0.0,0.0,92,0.00,,,0.00,,2013-02-06 13:12:00,
2013-02-06 08:22:00,54.0,52.0,30.00,East,97,0.0,0.0,92,0.00,,,0.00,,2013-02-06 13:22:00,
2013-02-06 08:32:00,54.0,52.0,30.00,East,101,1.0,2.0,92,0.00,,,0.00,,2013-02-06 13:32:00,
2013-02-06 08:42:00,54.0,52.0,30.00,East,101,1.0,2.0,92,0.00,,,0.00,,2013-02-06 13:42:00,
2013-02-06 08:52:00,55.0,53.0,30.01,East,87,0.0,0.0,92,0.00,,,0.00,,2013-02-06 13:52:00,
2013-02-06 09:02:00,57.0,55.0,30.01,East,87,0.0,0.0,92,0.00,,,0.00,,2013-02-06 14:02:00,
2013-02-06 09:11:00,57.0,55.0,30.01,East,87,0.0,0.0,92,0.00,,,0.00,,2013-02-06 14:11:00,
2013-02-06 09:22:00,58.0,56.0,30.02,East,94,0.0,0.0,92,0.00,,,0.00,,2013-02-06 14:22:00,
2013-02-06 09:32:00,60.0,58.0,30.02,ESE,103,0.0,0.0,92,0.00,,,0.00,,2013-02-06 14:32:00,
2013-02-06 09:42:00,60.0,58.0,30.02,ESE,103,0.0,0.0,92,0.00,,,0.00,,2013-02-06 14:42:00,
2013-02-06 09:52:00,64.0,59.0,30.02,East,100,0.0,0.0,83,0.00,,,0.00,,2013-02-06 14:52:00,
2013-02-06 10:02:00,68.0,57.0,30.03,SSE,167,0.0,0.0,69,0.00,,,0.00,,2013-02-06 15:02:00,
2013-02-06 10:11:00,68.0,57.0,30.03,SSE,167,0.0,0.0,69,0.00,,,0.00,,2013-02-06 15:11:00,
2013-02-06 10:21:00,70.0,55.0,30.03,East,98,0.0,0.0,60,0.00,,,0.00,,2013-02-06 15:21:00,
2013-02-06 10:32:00,72.0,57.0,30.03,East,93,0.0,0.0,59,0.00,,,0.00,,2013-02-06 15:32:00,
2013-02-06 10:42:00,72.0,57.0,30.03,East,93,0.0,0.0,59,0.00,,,0.00,,2013-02-06 15:42:00,
2013-02-06 10:52:00,73.0,57.0,30.03,SE,138,0.0,1.0,58,0.00,,,0.00,,2013-02-06 15:52:00,
2013-02-06 11:01:00,74.0,57.0,30.03,ESE,103,0.0,1.0,55,0.00,,,0.00,,2013-02-06 16:01:00,
2013-02-06 11:11:00,74.0,57.0,30.03,ESE,103,0.0,1.0,55,0.00,,,0.00,,2013-02-06 16:11:00,
2013-02-06 11:21:00,75.0,57.0,30.03,SSE,155,2.0,3.0,54,0.00,,,0.00,,2013-02-06 16:21:00,
2013-02-06 11:32:00,78.0,57.0,30.02,South,188,2.0,5.0,48,0.00,,,0.00,,2013-02-06 16:32:00,
2013-02-06 11:52:00,78.0,57.0,30.01,SE,130,0.0,0.0,49,0.00,,,0.00,,2013-02-06 16:52:00,
2013-02-06 12:02:00,79.0,58.0,30.01,South,179,1.0,3.0,48,0.00,,,0.00,,2013-02-06 17:02:00,
2013-02-06 12:12:00,79.0,58.0,30.01,South,179,1.0,3.0,48,0.00,,,0.00,,2013-02-06 17:12:00,
2013-02-06 12:22:00,78.0,56.0,30.01,SE,140,0.0,0.0,46,0.00,,,0.00,,2013-02-06 17:22:00,
2013-02-06 12:32:00,80.0,57.0,30.01,SE,135,2.0,4.0,46,0.00,,,0.00,,2013-02-06 17:32:00,
2013-02-06 12:42:00,80.0,57.0,30.01,SE,135,2.0,4.0,46,0.00,,,0.00,,2013-02-06 17:42:00,
2013-02-06 12:52:00,79.0,58.0,30.00,South,186,0.0,0.0,49,0.00,,,0.00,,2013-02-06 17:52:00,
2013-02-06 13:01:00,80.0,57.0,30.00,WSW,238,1.0,3.0,45,0.00,,,0.00,,2013-02-06 18:01:00,
2013-02-06 13:12:00,81.0,58.0,29.99,SSW,199,1.0,5.0,46,0.00,,,0.00,,2013-02-06 18:12:00,
2013-02-06 13:23:00,81.0,58.0,29.99,SSW,199,1.0,5.0,46,0.00,,,0.00,,2013-02-06 18:23:00,
2013-02-06 13:32:00,80.0,56.0,29.98,ESE,119,0.0,0.0,44,0.00,,,0.00,,2013-02-06 18:32:00,
2013-02-06 13:42:00,80.0,56.0,29.98,ESE,119,0.0,0.0,44,0.00,,,0.00,,2013-02-06 18:42:00,
2013-02-06 13:52:00,80.0,55.0,29.97,East,84,0.0,2.0,43,0.00,,,0.00,,2013-02-06 18:52:00,
2013-02-06 14:02:00,81.0,56.0,29.97,SSW,199,4.0,9.0,42,0.00,,,0.00,,2013-02-06 19:02:00,
2013-02-06 14:11:00,81.0,56.0,29.97,SSW,199,4.0,9.0,42,0.00,,,0.00,,2013-02-06 19:11:00,
2013-02-06 14:21:00,80.0,55.0,29.96,NW,304,0.0,0.0,43,0.00,,,0.00,,2013-02-06 19:21:00,
2013-02-06 14:32:00,79.0,55.0,29.96,SSW,206,0.0,2.0,44,0.00,,,0.00,,2013-02-06 19:32:00,
2013-02-06 14:42:00,79.0,55.0,29.96,SSW,206,0.0,2.0,44,0.00,,,0.00,,2013-02-06 19:42:00,
2013-02-06 14:52:00,80.0,57.0,29.96,West,270,0.0,0.0,45,0.00,,,0.00,,2013-02-06 19:52:00,
2013-02-06 15:01:00,81.0,56.0,29.96,SSW,198,1.0,5.0,43,0.00,,,0.00,,2013-02-06 20:01:00,
2013-02-06 15:11:00,82.0,59.0,29.96,WNW,300,3.0,6.0,46,0.00,,,0.00,,2013-02-06 20:11:00,
2013-02-06 15:21:00,82.0,59.0,29.96,WNW,300,3.0,6.0,46,0.00,,,0.00,,2013-02-06 20:21:00,
2013-02-06 15:32:00,82.0,57.0,29.95,NW,306,1.0,4.0,42,0.00,,,0.00,,2013-02-06 20:32:00,
2013-02-06 15:42:00,82.0,57.0,29.95,NW,306,1.0,4.0,42,0.00,,,0.00,,2013-02-06 20:42:00,
2013-02-06 15:52:00,80.0,57.0,29.95,South,171,0.0,0.0,45,0.00,,,0.00,,2013-02-06 20:52:00,
2013-02-06 16:02:00,79.0,57.0,29.95,NW,317,0.0,0.0,47,0.00,,,0.00,,2013-02-06 21:02:00,
2013-02-06 16:11:00,79.0,57.0,29.95,NW,317,0.0,0.0,47,0.00,,,0.00,,2013-02-06 21:11:00,
2013-02-06 16:21:00,79.0,58.0,29.95,South,184,0.0,0.0,48,0.00,,,0.00,,2013-02-06 21:21:00,
2013-02-06 16:32:00,79.0,58.0,29.95,WNW,288,0.0,0.0,49,0.00,,,0.00,,2013-02-06 21:32:00,
2013-02-06 16:42:00,79.0,58.0,29.95,WNW,288,0.0,0.0,49,0.00,,,0.00,,2013-02-06 21:42:00,
2013-02-06 16:51:00,79.0,58.0,29.95,SW,236,0.0,0.0,48,0.00,,,0.00,,2013-02-06 21:51:00,
2013-02-06 17:01:00,80.0,59.0,29.95,SW,221,1.0,4.0,48,0.00,,,0.00,,2013-02-06 22:01:00,
2013-02-06 17:11:00,80.0,59.0,29.95,SW,221,1.0,4.0,48,0.00,,,0.00,,2013-02-06 22:11:00,
2013-02-06 17:22:00,79.0,58.0,29.95,WNW,285,4.0,6.0,48,0.00,,,0.00,,2013-02-06 22:22:00,
2013-02-06 17:32:00,78.0,58.0,29.95,SW,234,1.0,4.0,50,0.00,,,0.00,,2013-02-06 22:32:00,
2013-02-06 17:42:00,78.0,58.0,29.95,SW,234,1.0,4.0,50,0.00,,,0.00,,2013-02-06 22:42:00,
2013-02-06 17:52:00,78.0,58.0,29.95,WSW,257,0.0,1.0,50,0.00,,,0.00,,2013-02-06 22:52:00,
2013-02-06 18:01:00,77.0,58.0,29.96,WSW,250,1.0,3.0,52,0.00,,,0.00,,2013-02-06 23:01:00,
2013-02-06 18:11:00,77.0,58.0,29.96,WSW,250,1.0,3.0,52,0.00,,,0.00,,2013-02-06 23:11:00,
2013-02-06 18:21:00,76.0,58.0,29.96,West,273,0.0,0.0,54,0.00,,,0.00,,2013-02-06 23:21:00,
2013-02-06 18:32:00,75.0,58.0,29.96,West,280,0.0,0.0,56,0.00,,,0.00,,2013-02-06 23:32:00,
2013-02-06 18:42:00,75.0,58.0,29.96,West,280,0.0,0.0,56,0.00,,,0.00,,2013-02-06 23:42:00,
2013-02-06 18:52:00,74.0,58.0,29.96,West,280,0.0,0.0,57,0.00,,,0.00,,2013-02-06 23:52:00,
2013-02-06 19:02:00,72.0,58.0,29.96,WNW,285,0.0,0.0,61,0.00,,,0.00,,2013-02-07 00:02:00,
2013-02-06 19:11:00,72.0,58.0,29.96,WNW,285,0.0,0.0,61,0.00,,,0.00,,2013-02-07 00:11:00,
2013-02-06 19:22:00,71.0,57.0,29.96,WNW,285,0.0,0.0,62,0.00,,,0.00,,2013-02-07 00:22:00,
2013-02-06 19:32:00,69.0,57.0,29.96,WNW,286,0.0,0.0,65,0.00,,,0.00,,2013-02-07 00:32:00,
2013-02-06 19:42:00,69.0,57.0,29.96,WNW,286,0.0,0.0,65,0.00,,,0.00,,2013-02-07 00:42:00,
2013-02-06 19:52:00,68.0,57.0,29.97,WNW,286,0.0,0.0,68,0.00,,,0.00,,2013-02-07 00:52:00,
2013-02-06 20:01:00,67.0,57.0,29.98,WNW,286,0.0,0.0,70,0.00,,,0.00,,2013-02-07 01:01:00,
2013-02-06 20:11:00,67.0,57.0,29.98,WNW,286,0.0,0.0,70,0.00,,,0.00,,2013-02-07 01:11:00,
2013-02-06 20:21:00,66.0,57.0,29.98,WNW,286,0.0,0.0,72,0.00,,,0.00,,2013-02-07 01:21:00,
2013-02-06 20:32:00,66.0,57.0,29.98,WNW,286,0.0,0.0,73,0.00,,,0.00,,2013-02-07 01:32:00,
2013-02-06 20:42:00,66.0,57.0,29.98,WNW,286,0.0,0.0,73,0.00,,,0.00,,2013-02-07 01:42:00,
2013-02-06 20:52:00,66.0,57.0,29.98,WNW,286,0.0,0.0,74,0.00,,,0.00,,2013-02-07 01:52:00,
2013-02-06 21:01:00,65.0,57.0,29.98,WNW,286,0.0,0.0,75,0.00,,,0.00,,2013-02-07 02:01:00,
2013-02-06 21:11:00,65.0,57.0,29.98,WNW,286,0.0,0.0,75,0.00,,,0.00,,2013-02-07 02:11:00,
2013-02-06 21:21:00,65.0,58.0,29.98,WNW,286,0.0,0.0,77,0.00,,,0.00,,2013-02-07 02:21:00,
2013-02-06 21:32:00,65.0,58.0,29.98,WNW,286,0.0,0.0,77,0.00,,,0.00,,2013-02-07 02:32:00,
2013-02-06 21:42:00,65.0,58.0,29.98,WNW,286,0.0,0.0,77,0.00,,,0.00,,2013-02-07 02:42:00,
2013-02-06 21:52:00,65.0,58.0,29.98,WNW,286,0.0,0.0,77,0.00,,,0.00,,2013-02-07 02:52:00,
2013-02-06 22:02:00,65.0,59.0,29.99,North,5,0.0,0.0,81,0.00,,,0.00,,2013-02-07 03:02:00,
2013-02-06 22:11:00,65.0,59.0,29.99,North,5,0.0,0.0,81,0.00,,,0.00,,2013-02-07 03:11:00,
2013-02-06 22:21:00,65.0,59.0,29.99,North,5,0.0,0.0,81,0.00,,,0.00,,2013-02-07 03:21:00,
2013-02-06 22:32:00,65.0,59.0,29.99,North,5,0.0,0.0,82,0.00,,,0.00,,2013-02-07 03:32:00,
2013-02-06 22:42:00,65.0,59.0,29.99,North,5,0.0,0.0,82,0.00,,,0.00,,2013-02-07 03:42:00,
2013-02-06 22:52:00,65.0,59.0,29.99,North,5,0.0,0.0,82,0.00,,,0.00,,2013-02-07 03:52:00,
2013-02-06 23:01:00,64.0,58.0,29.99,North,5,0.0,0.0,82,0.00,,,0.00,,2013-02-07 04:01:00,
2013-02-06 23:11:00,64.0,58.0,29.99,North,5,0.0,0.0,82,0.00,,,0.00,,2013-02-07 04:11:00,
2013-02-06 23:22:00,64.0,58.0,29.99,North,5,0.0,0.0,82,0.00,,,0.00,,2013-02-07 04:22:00,
2013-02-06 23:32:00,63.0,57.0,29.98,North,5,0.0,0.0,82,0.00,,,0.00,,2013-02-07 04:32:00,
2013-02-06 23:42:00,63.0,57.0,29.98,North,5,0.0,0.0,82,0.00,,,0.00,,2013-02-07 04:42:00,
2013-02-06 23:53:00,63.0,57.0,29.98,North,5,0.0,0.0,82,0.00,,,0.00,,2013-02-07 04:53:00,